Weather History for Windom, MN

Change the Weather History Date:

Thursday, October 7, 2010

  Actual Average Record
Temperature  
Mean Temperature 54 °F -  
Max Temperature 75 °F 63 °F 85 °F (1980)
Min Temperature 33 °F 38 °F 17 °F (2012)
Degree Days  
Heating Degree Days 11    
Growing Degree Days 4 (Base 50)    
Moisture  
Dew Point 34 °F    
Average Humidity 60    
Maximum Humidity 100    
Minimum Humidity 15    
Precipitation  
Precipitation 0.02 in - - ()
Sea Level Pressure  
Sea Level Pressure 30.17 in    
Wind  
Wind Speed 3 mph (SW)    
Max Wind Speed 12 mph    
Max Gust Speed -    
Visibility 10 miles    
Events      
Averages and records for this station are not official NWS values.
T = Trace of Precipitation, MM = Missing Value Source: NWS Daily Summary

Daily Weather History Graph

Daily Weather History Graph

Search for Another Location

Airport:

Trip Planner

Search our weather history database for the weather conditions in past years. The results will help you decide how hot, cold, wet, or windy it might be!

Date:

Astronomy

Oct. 07, 2010 Rise Set
Actual Time 7:25 AM CDT 6:50 PM CDT
Civil Twilight 6:56 AM CDT 7:19 PM CDT
Nautical Twilight 6:23 AM CDT 7:52 PM CDT
Astronomical Twilight 5:49 AM CDT 8:26 PM CDT
Moon 7:19 AM CDT (10/7) 6:24 PM CDT (10/7)
Length of Visible Light 12h 22m
Length of Day
11h 25m
Waning Crescent, 0% of the Moon is Illuminated
Oct 7
Waning Crescent
Oct 7
New
Oct 14
First Quarter
Oct 22
Full
Oct 30
Last Quarter

Hourly Weather History & Observations

Time (CDT) Temp. Windchill Dew Point Humidity Pressure Visibility Wind Dir Wind Speed Gust Speed Precip Events Conditions
12:13 AM 41.0 °F 38.0 °F 37.4 °F 87% 30.21 in 10.0 mi West 4.6 mph - N/A   Clear
12:33 AM 42.8 °F 40.1 °F 37.4 °F 81% 30.20 in 10.0 mi West 4.6 mph - N/A   Clear
12:53 AM 39.2 °F 37.0 °F 37.4 °F 93% 30.20 in 10.0 mi West 3.5 mph - N/A   Clear
1:13 AM 39.2 °F - 37.4 °F 93% 30.20 in 10.0 mi Calm Calm - N/A   Clear
1:33 AM 41.0 °F - 37.4 °F 87% 30.20 in 10.0 mi Calm Calm - N/A   Clear
1:53 AM 41.0 °F - 37.4 °F 87% 30.20 in 10.0 mi Calm Calm - N/A   Clear
2:13 AM 37.4 °F 33.8 °F 35.6 °F 93% 30.20 in 10.0 mi West 4.6 mph - N/A   Clear
2:33 AM 37.4 °F - 35.6 °F 93% 30.19 in 10.0 mi Calm Calm - N/A   Clear
2:53 AM 39.2 °F 37.0 °F 35.6 °F 87% 30.19 in 10.0 mi WSW 3.5 mph - N/A   Clear
3:13 AM 39.2 °F - 37.4 °F 93% 30.19 in 10.0 mi Calm Calm - N/A   Clear
3:33 AM 37.4 °F - 35.6 °F 93% 30.19 in 10.0 mi Calm Calm - N/A   Clear
3:53 AM 37.4 °F 33.8 °F 35.6 °F 93% 30.19 in 10.0 mi West 4.6 mph - N/A   Clear
4:13 AM 37.4 °F 34.9 °F 35.6 °F 93% 30.19 in 10.0 mi West 3.5 mph - N/A   Clear
4:33 AM 35.6 °F - 35.6 °F 100% 30.19 in 10.0 mi Calm Calm - N/A   Clear
4:53 AM 35.6 °F - 35.6 °F 100% 30.19 in 10.0 mi Calm Calm - N/A   Clear
5:13 AM 35.6 °F - 35.6 °F 100% 30.19 in 10.0 mi Calm Calm - N/A   Clear
5:33 AM 35.6 °F - 33.8 °F 93% 30.18 in 10.0 mi Calm Calm - N/A   Clear
5:53 AM 37.4 °F 34.9 °F 35.6 °F 93% 30.18 in 10.0 mi SW 3.5 mph - N/A   Clear
6:13 AM 35.6 °F - 33.8 °F 93% 30.19 in 10.0 mi Calm Calm - N/A   Clear
6:33 AM 35.6 °F - 35.6 °F 100% 30.19 in 10.0 mi Calm Calm - N/A   Clear
6:53 AM 35.6 °F - 33.8 °F 93% 30.19 in 10.0 mi Calm Calm - N/A   Clear
7:13 AM 33.8 °F - 33.8 °F 100% 30.20 in 10.0 mi Calm Calm - N/A   Clear
7:33 AM 35.6 °F - 33.8 °F 93% 30.20 in 10.0 mi Calm Calm - N/A   Clear
7:53 AM 35.6 °F - 35.6 °F 100% 30.21 in 10.0 mi Calm Calm - N/A   Clear
8:13 AM 37.4 °F - 33.8 °F 87% 30.21 in 10.0 mi Calm Calm - N/A   Clear
8:33 AM 39.2 °F - 37.4 °F 93% 30.21 in 10.0 mi Calm Calm - N/A   Clear
8:53 AM 44.6 °F - 39.2 °F 81% 30.21 in 10.0 mi Calm Calm - N/A   Clear
9:13 AM 46.4 °F - 41.0 °F 81% 30.22 in 10.0 mi Calm Calm - N/A   Clear
9:33 AM 51.8 °F - 44.6 °F 76% 30.22 in 10.0 mi Calm Calm - N/A   Clear
9:53 AM 55.4 °F - 44.6 °F 67% 30.22 in 10.0 mi Calm Calm - N/A   Clear
10:13 AM 57.2 °F - 44.6 °F 63% 30.22 in 10.0 mi WSW 3.5 mph - N/A   Clear
10:33 AM 60.8 °F - 42.8 °F 52% 30.22 in 10.0 mi Calm Calm - N/A   Clear
10:53 AM 62.6 °F - 39.2 °F 42% 30.22 in 10.0 mi South 3.5 mph - N/A   Clear
11:13 AM 64.4 °F - 35.6 °F 34% 30.21 in 10.0 mi SSW 4.6 mph - N/A   Clear
11:33 AM 64.4 °F - 35.6 °F 34% 30.21 in 10.0 mi SSW 3.5 mph - N/A   Clear
11:53 AM 66.2 °F - 35.6 °F 32% 30.20 in 10.0 mi SSW 5.8 mph - N/A   Clear
12:13 PM 68.0 °F - 35.6 °F 30% 30.20 in 10.0 mi SSW 5.8 mph - N/A   Clear
12:33 PM 69.8 °F - 33.8 °F 27% 30.19 in 10.0 mi SW 5.8 mph - N/A   Clear
12:53 PM 69.8 °F - 33.8 °F 27% 30.19 in 10.0 mi WSW 9.2 mph - N/A   Clear
1:13 PM 69.8 °F - 30.2 °F 23% 30.18 in 10.0 mi SSW 9.2 mph - N/A   Clear
1:33 PM 69.8 °F - 33.8 °F 27% 30.17 in 10.0 mi SSW 8.1 mph - N/A   Clear
1:53 PM 71.6 °F - 33.8 °F 25% 30.16 in 10.0 mi SSW 8.1 mph - N/A   Clear
1:55 PM 71.6 °F - 33.8 °F 25% 30.16 in 10.0 mi SSW 8.1 mph - 0.02 in   Clear
2:13 PM - - - N/A% 30.15 in - SW 8.1 mph - N/A   Unknown
2:33 PM 73.4 °F - 30.2 °F 20% 30.14 in 10.0 mi SSW 8.1 mph - N/A   Clear
2:53 PM 73.4 °F - 28.4 °F 19% 30.12 in 10.0 mi South 5.8 mph - N/A   Clear
3:13 PM 73.4 °F - 28.4 °F 19% 30.12 in 10.0 mi SSW 9.2 mph - N/A   Clear
3:33 PM 75.2 °F - 24.8 °F 15% 30.11 in 10.0 mi SSW 10.4 mph - N/A   Clear
3:53 PM 75.2 °F - 24.8 °F 15% 30.11 in 10.0 mi SW 9.2 mph - N/A   Clear
4:13 PM 75.2 °F - 24.8 °F 15% 30.10 in 10.0 mi SSW 11.5 mph - N/A   Clear
4:33 PM 75.2 °F - 26.6 °F 17% 30.10 in 10.0 mi SSW 10.4 mph - N/A   Clear
4:53 PM 75.2 °F - 26.6 °F 17% 30.09 in 10.0 mi SSW 9.2 mph - N/A   Clear
5:13 PM 75.2 °F - 24.8 °F 15% 30.09 in 10.0 mi SSW 10.4 mph - N/A   Clear
5:33 PM 73.4 °F - 28.4 °F 19% 30.08 in 10.0 mi SW 6.9 mph - N/A   Clear
5:53 PM 71.6 °F - 30.2 °F 22% 30.08 in 10.0 mi SW 8.1 mph - N/A   Clear
6:13 PM 71.6 °F - 30.2 °F 22% 30.08 in 10.0 mi SSW 5.8 mph - N/A   Clear
6:33 PM 69.8 °F - 30.2 °F 23% 30.07 in 10.0 mi SSW 4.6 mph - N/A   Clear
6:53 PM 68.0 °F - 30.2 °F 24% 30.07 in 10.0 mi South 5.8 mph - N/A   Clear
7:13 PM 64.4 °F - 33.8 °F 32% 30.06 in 10.0 mi South 3.5 mph - N/A   Clear
7:33 PM 64.4 °F - 33.8 °F 32% 30.06 in 10.0 mi South 4.6 mph - N/A   Clear
7:53 PM 62.6 °F - 33.8 °F 34% 30.06 in 10.0 mi South 5.8 mph - N/A   Clear
8:13 PM 60.8 °F - 35.6 °F 39% 30.06 in 10.0 mi South 6.9 mph - N/A   Clear
8:33 PM 60.8 °F - 35.6 °F 39% 30.05 in 10.0 mi South 6.9 mph - N/A   Clear
8:53 PM 60.8 °F - 35.6 °F 39% 30.05 in 10.0 mi South 6.9 mph - N/A   Clear
9:13 PM 57.2 °F - 37.4 °F 48% 30.05 in 10.0 mi South 6.9 mph - N/A   Clear
9:33 PM 59.0 °F - 37.4 °F 45% 30.05 in 10.0 mi South 6.9 mph - N/A   Clear
9:53 PM 57.2 °F - 37.4 °F 48% 30.04 in 10.0 mi SSW 8.1 mph - N/A   Clear
10:13 PM 60.8 °F - 35.6 °F 39% 30.04 in 10.0 mi SSW 9.2 mph - N/A   Clear
10:33 PM 59.0 °F - 37.4 °F 45% 30.04 in 10.0 mi SSW 8.1 mph - N/A   Clear
10:53 PM 60.8 °F - 35.6 °F 39% 30.04 in 10.0 mi SSW 10.4 mph - N/A   Clear
11:13 PM 60.8 °F - 35.6 °F 39% 30.04 in 10.0 mi SSW 9.2 mph - N/A   Clear
11:33 PM 60.8 °F - 35.6 °F 39% 30.03 in 10.0 mi SSW 10.4 mph - N/A   Clear
11:53 PM 60.8 °F - 35.6 °F 39% 30.03 in 10.0 mi SSW 13.8 mph 18.4 mph N/A   Clear